Regional Weather Roundup
Issued by NWS Upton, NY

Current Version | Previous Version | Text Only | Print | Product List | Glossary On
Versions: 1 2 3 4 5 6 7 8 9 10 11 12 13 14 15 16 17 18 19 20 21 22 23 24 25 26 27 28 29 30 31 32 33 34 35 36 37 38 39 40 41 42 43 44 45 46 47 48 49 50
953
ASUS41 KOKX 081208
RWROKX

REGIONAL WEATHER ROUNDUP
NATIONAL WEATHER SERVICE NEW YORK NY
700 AM EST THU DEC 08 2016

NOTE: "FAIR" INDICATES FEW OR NO CLOUDS BELOW 12,000 FEET WITH NO
SIGNIFICANT WEATHER AND/OR OBSTRUCTIONS TO VISIBILITY.

NYZ071-072-176-178-NJZ106-104-081300-
NEW YORK CITY METRO AREA

CITY           SKY/WX    TMP DP  RH WIND       PRES   REMARKS
Central Park   CLOUDY    40  28  62 NW5       30.00S
Wall St Helipt CLOUDY    40  33  76 W7        30.00S
Bronx Bot Gard NOT AVBL
LaGuardia APRT CLOUDY    43  29  57 NW9       29.98R
Kennedy INTL   MOCLDY    41  32  70 W9        30.00R
Breezy Point     N/A     39 N/A N/A W8G15       N/A  WCI  34
Newark/Liberty MOCLDY    37  31  78 SW6       29.99S WCI  32
Teterboro      CLOUDY    36  31  82 CALM      29.98R
$$

NYZ177-179-078>081-081300-
LONG ISLAND NEW YORK

CITY           SKY/WX    TMP DP  RH WIND       PRES   REMARKS
Jones Beach      N/A     41 N/A N/A W8          N/A
Matinecock PT    N/A     43 N/A N/A W13         N/A
Farmingdale    CLOUDY    35  32  88 W5        29.98S WCI  31
MacArthur/ISP  MOCLDY    31  30  96 CALM      29.96F
Shirley        CLOUDY    32  31  96 CALM      29.97F
Westhampton    CLOUDY    26  23  88 CALM      29.98F
Southampton    NOT AVBL
Bridgehampton  NOT AVBL
East Hampton     N/A     29  28  96 CALM      29.96S
Montauk          N/A     41  37  86 SW3       29.97S
$$

NYZ052-065-067-081300-
HUDSON VALLEY

CITY           SKY/WX    TMP DP  RH WIND       PRES   REMARKS
White Plains   CLOUDY    35  29  78 W5        29.95S WCI  31
Newburgh       MOCLDY    32  30  93 W6        29.96F WCI  26
Montgomery     MOCLDY    31  29  92 SW5       29.95S WCI  26
Poughkeepsie   MOCLDY    32  29  88 SW7       29.95S WCI  26
Albany         FOG       32  31  96 S6        29.93F VSB 3/4 WCI  26
$$

NJZ001-105-106-008-010-013-015-019>022-104-081300-
NEW JERSEY

CITY           SKY/WX    TMP DP  RH WIND       PRES   REMARKS
Newark/Liberty MOCLDY    37  31  78 SW6       29.99S WCI  32
Teterboro      CLOUDY    36  31  82 CALM      29.98R
Caldwell       CLOUDY    33  31  92 CALM      29.99S
Somerville     MOCLDY    29  27  92 CALM      29.97F
Linden         CLOUDY    37  28  72 W5        29.99F WCI  33
Sussex         CLOUDY    30  29  96 CALM      29.96F
Andover          N/A     31  30  96 CALM      29.97S
Trenton        CLOUDY    32  29  88 CALM      30.00S
Millville      CLOUDY    29  29 100 CALM      30.03S FOG
Atlantic City  PTCLDY    33  30  88 CALM      30.02F
Wrightstown    CLOUDY    33  30  90 W5        29.99S WCI  28
Toms River     CLOUDY    30  29  96 W5        30.02S WCI  25
Belmar         MOCLDY    32  31  96 SW6       30.00F WCI  26
$$

PAZ047>061-062-071-081300-
EASTERN PENNSYLVANIA

CITY           SKY/WX    TMP DP  RH WIND       PRES   REMARKS
Philadelphia   CLOUDY    37  29  72 SW6       30.03F WCI  32
Allentown      CLOUDY    31  25  78 SW5       29.98F WCI  26
Scranton       MOCLDY    34  23  64 S5        29.94F WCI  30
$$

CTZ002-004>006-009-010-012-RIZ004-006-007-MAZ004-011-015-081300-
SOUTHERN NEW ENGLAND
 IN CT

CITY           SKY/WX    TMP DP  RH WIND       PRES   REMARKS
Bradley INTL   MOCLDY    28  27  96 CALM      29.95S FOG
Hartford       FOG       31  31 100 CALM      29.95S VSB 1/4
Danbury        CLOUDY    28  26  92 CALM      29.96S FOG
Wtrbury/Oxford PTCLDY    32  28  86 CALM      29.95R
Bridgeport     CLEAR     36  30  80 CALM      29.99R
Meriden        FOG       31  29  92 CALM      29.95F VSB 1/4
New Haven      CLOUDY    31  29  92 CALM      29.96S
Chester          N/A     34  32  93 CALM      29.94S
Groton         MOCLDY    35  33  92 CALM      29.95F
Wilimantic     FOG       32  32 100 CALM      29.95F VSB 1/4

 IN RI

CITY           SKY/WX    TMP DP  RH WIND       PRES   REMARKS
Providence     MOCLDY    34  32  92 CALM      29.95S FOG
Block Island   CLOUDY    42  37  82 SW6       29.96S
Westerly       CLOUDY    32  29  88 CALM      29.96S
 IN MA

CITY           SKY/WX    TMP DP  RH WIND       PRES   REMARKS
Boston         MOCLDY    36  33  89 S5        29.94F WCI  32
Worcester      PTCLDY    30  28  92 W7        29.89F WCI  23
Westfield      PTCLDY    27  27 100 CALM      29.93S
Provincetown   CLEAR     41  31  67 W7        29.95S
Nantucket      PTCLDY    40  34  79 NW10      29.95F WCI  33
$$

ANZ330-335-338-340-345-350-353-355-081300-
COASTAL MARINE OBSERVATIONS


STATION/POSITION TIME  SKY/WX   TEMP    WIND        PRES    VSBY  WAVE
                                AIR SEA DIR/SP/G                  HT/PER
                 (UTC)          (F)     (DEG/KT/KT) (MB)    (MI)  (FT/S)
NY HARB ENTRANCE 1050            44 52  280/ 14/ 16 1015.3          3/ 9
20 S FIRE ISLAND 1050            47 53  280/ 12/ 14 1014.9          4/ 8
GREAT SOUTH BAY  1130            41 43                N/A
23 SSW MONTAUK P 1050            46 54  270/ 10/ 14 1015.2          4/ 8
15 E BARNEGAT LI 1130               53                N/A           4/ 8
HUDSON CANYON    1050            49 57              1015.5          5/ 8
KINGS POINT      1130            42 48              1014.9
EXECUTION ROCKS  1130            42     260/  4/  6   N/A
CENTRAL LI SOUND 1145            44 50  260/ 10/ 12   N/A           1/ 3
EASTERN LI SOUND NOT AVBL
ROBBINS REEF     1130            38     250/ 12/ 13 1015.8
$$


>>>>>>>>>>>>>>>>>>>>>>>>>>>> KEY <<<<<<<<<<<<<<<<<<<<<<<<<<<
>                                                          <
>     SKY/WX - Sky Condition/Present Weather               <
>     TMP    - Temperature in Fahrenheit                   <
>     DP     - Dew Point in Fahrenheit                     <
>     RH     - Relative Humidity in Percent                <
>     WIND   - Direction (from) and Speed in MPH           <
>     PRES   - Mean Sea Level Pressure (inches of Hg)      <
>     WCI    - Wind Chill Index                            <
>     VSB    - VISIBILITY IN MILES                         <
>     HX     - HEAT INDEX                                  <
>     TC     - TEMPERATURE IN CELSIUS                      <
>     VRB    - VARIABLE WIND DIRECTION                     <
>                                                          <
>>>>>>>>>>>>>>>>>>>>>>>>>>>> KEY <<<<<<<<<<<<<<<<<<<<<<<<<<<




USA.gov is the U.S. government's official web portal to all federal, state and local government web resources and services.